This is the latest recevied weather packets stored in our database for station/object KRUE. If no packets are shown the sender has not sent any weather packets the latest 10 day(s).
| Time | Temp. | Humidity | Pressure | Rain* | Wind** | Luminosity | Snow |
|---|---|---|---|---|---|---|---|
| 1777457020 | 15.56° C | 77% | 1013.9 hPa | - | - | - | - |
| 1777456420 | 16.67° C | 77% | 1013.2 hPa | - | - | - | - |
| 1777455818 | 16.67° C | 77% | 1013.2 hPa | - | - | - | - |
| 1777455219 | 16.67° C | 77% | 1013.2 hPa | - | - | - | - |
| 1777454617 | 16.67° C | 77% | 1013.2 hPa | - | - | - | - |
| 1777454018 | 16.67° C | 77% | 1013.2 hPa | - | - | - | - |
| 1777453417 | 16.67° C | 77% | 1013.2 hPa | - | - | - | - |
| 1777452818 | 17.78° C | 82% | 1013.5 hPa | - | - | - | - |
| 1777452216 | 17.78° C | 82% | 1013.5 hPa | - | - | - | - |
| 1777451616 | 17.78° C | 82% | 1013.5 hPa | - | - | - | - |
| 1777451021 | 17.78° C | 82% | 1013.5 hPa | - | - | - | - |
| 1777450419 | 17.78° C | 82% | 1013.5 hPa | - | - | - | - |
| 1777449821 | 17.78° C | 82% | 1013.5 hPa | - | - | - | - |
| 1777449219 | 17.78° C | 88% | 1013.5 hPa | - | - | - | - |
| 1777448620 | 18.89° C | 82% | 1013.2 hPa | - | - | - | - |
| 1777448019 | 18.89° C | 82% | 1013.2 hPa | - | - | - | - |
| 1777447424 | 18.89° C | 82% | 1013.2 hPa | - | - | - | - |
| 1777446822 | 18.89° C | 82% | 1013.2 hPa | - | - | - | - |
| 1777446220 | 18.89° C | 82% | 1013.2 hPa | - | - | - | - |
| 1777445623 | 18.89° C | 82% | 1013.2 hPa | - | - | - | - |
| 1777445020 | 18.89° C | 82% | 1012.9 hPa | - | - | - | - |
| 1777444423 | 18.89° C | 82% | 1012.9 hPa | - | - | - | - |
| 1777443818 | 20° C | 77% | 1012.9 hPa | - | - | - | - |
| 1777443221 | 18.89° C | 88% | 1012.5 hPa | - | - | - | - |
| 1777442619 | 18.89° C | 88% | 1012.5 hPa | - | - | - | - |
* Rain since midnight (hover to see other rain measurements)
** Current wind speed in m/s (hover to see current wind gust speed)